Weather Roundup
Issued by NWS Chicago, IL

Home | Current Version | Previous Version | Graphics & Text | Print | Product List | Glossary On
Versions: 1 2 3 4 5 6 7 8 9 10 11 12 13 14 15 16 17 18 19 20 21 22 23 24 25 26 27 28 29 30 31 32 33 34 35 36 37 38 39 40 41 42 43 44 45 46 47 48 49 50
000
NZUS59 KLOT 302202
HRRLOT

CHICAGO AREA WEATHER ROUNDUP
NATIONAL WEATHER SERVICE CHICAGO/ROMEOVILLE IL
500 PM CDT THU JUL 30 2015

NOTE: "FAIR" INDICATES FEW OR NO CLOUDS BELOW 12,000 FEET WITH NO
SIGNIFICANT WEATHER AND/OR OBSTRUCTIONS TO VISIBILITY.

* THESE STATIONS ARE NOT UNDER NWS QUALITY CONTROL. THEY ALSO MAY NOT
  REPORT WEATHER SUCH AS PRECIPITATION OR FOG.

ILZ005-006-012>014-019>023-302300-
NORTHEAST ILLINOIS

CITY           SKY/WX    TMP DP  RH WIND       PRES   REMARKS
OHARE          MOSUNNY   87  53  31 W14G24    30.01F HX  85
MIDWAY         MOSUNNY   89  51  27 W15       30.02F HX  86
AURORA         SUNNY     85  60  42 W15       30.05S HX  85
WAUKEGAN       SUNNY     85  55  35 SW8       30.00F HX  83
DUPAGE AIRPORT SUNNY     86  53  32 NW15G22   30.03F HX  84
WHEELING       SUNNY     87  51  28 W13G22    30.03S HX  85
NORTHERLY IS     N/A     87  46  24 W13         N/A  HX  84
$$

WIZ051-052-058>065-066-070>072-302300-
SOUTHEAST WISCONSIN

CITY           SKY/WX    TMP DP  RH WIND       PRES   REMARKS
MILWAUKEE      MOSUNNY   87  49  26 W16G26    29.98F HX  84
KENOSHA*       SUNNY     85  57  38 W10       30.00F HX  84
RACINE*        MOSUNNY   87  51  28 W12G23    30.00F HX  85
WAUKESHA       MOSUNNY   84  50  30 W20G26    30.00F HX  82
$$

INZ001>003-010>013-019-020-302300-
NORTHWEST INDIANA

CITY           SKY/WX    TMP DP  RH WIND       PRES   REMARKS
GARY*          MOSUNNY   88  52  29 W14G30    30.02F HX  85
MICHIGAN CITY* NOT AVBL
RENSSELAER*    NOT AVBL
$$

LMZ740>746-302300-
SOUTHERN LAKE MICHIGAN

STATION/POSITION TIME  SKY/WX   TEMP WIND        PRES    VSBY
                                AIR  DIR/SP/G
                 (UTC)          (F)  (DEG/KT/KT) (MB)    (MI)
HARRISON CRIB    2100            83  280/ 12/ 14   N/A
BURNHAM HARBOR   2100            87  260/  5/ 18   N/A
CALUMET HARBOR   2100            87  240/  5/ 14   N/A
BURNS HARBOR     2100            85   60/  1/  3 1017.3F
MICHIGAN CITY    2100            79  210/  4/  4   N/A
$$

ABBREVIATIONS USED IN REMARKS
   TC - TEMPERATURE IN CELSIUS
  WCI - WIND CHILL INDEX
   HX - HEAT INDEX
  VSB - VISIBILITY
$$


USA.gov is the U.S. government's official web portal to all federal, state and local government web resources and services.